Regional Weather Roundup
Issued by NWS

Home | Current Version | Previous Version | Graphics & Text | Print | Product List | Glossary On
Versions: 1 2 3 4 5 6 7 8 9 10 11 12 13 14 15 16 17 18 19 20 21 22 23 24 25 26 27 28 29 30 31 32 33 34 35 36 37 38 39 40 41 42 43 44 45 46 47 48 49 50
000
ASUS43 KLSX 030359
RWRMO

WEATHER SUMMARY FOR MISSOURI
NATIONAL WEATHER SERVICE SPRINGFIELD MO
1100 PM CDT THU JUL 02 2015

NOTE: "FAIR" INDICATES FEW OR NO CLOUDS BELOW 12,000 FEET WITH NO
       SIGNIFICANT WEATHER AND/OR OBSTRUCTIONS TO VISIBILITY.
       CURRENT SKY AND/OR WEATHER CONDITIONS ARE NOT AVAILABLE FOR
       CHILLICOTHE AND FARMINGTON.

MOZ001>031-035>038-043-044-053-054-030500-
...NORTHERN AND WESTERN MISSOURI...

CITY           SKY/WX    TMP DP  RH WIND       PRES   REMARKS
KANSAS CTY INT PTCLDY    68  66  93 NE6       29.96R FOG
KANSAS C DTWN  CLOUDY    70  67  90 E5        29.95R
LEE`S SUMMIT   CLOUDY    70  65  84 E3        29.96R
ST JOSEPH      CLOUDY    68  64  87 E7        29.96R
CHILLICOTHE      N/A     67  60  78 NE5       29.98R
KIRKSVILLE     CLOUDY    64  61  90 CALM      29.98R

$$
MOZ066>068-077>081-088>096-101>105-030500-
...SOUTHWEST MISSOURI...

CITY           SKY/WX    TMP DP  RH WIND       PRES   REMARKS
SPRINGFIELD    CLOUDY    74  70  87 N7        29.93R
JOPLIN         MOCLDY    74  72  93 CALM      29.92F

$$
MOZ032>034-039>042-045>050-055>058-069>072-030500-
...CENTRAL MISSOURI...

CITY           SKY/WX    TMP DP  RH WIND       PRES   REMARKS
COLUMBIA       CLOUDY    68  62  81 NE9       29.94S
JEFFERSON CITY CLOUDY    70  62  76 NE9       29.92R
ROLLA          CLOUDY    70  67  90 CALM      29.92R
SEDALIA        CLOUDY    71  66  84 E6        29.95R
WHITEMAN AFB   DRIZZLE   70  68  94 NE3       29.93R
OSAGE BEACH    CLOUDY    72  66  83 CALM      29.93R

$$
MOZ051-052-059>065-030500-
...EAST CENTRAL MISSOURI...

CITY           SKY/WX    TMP DP  RH WIND       PRES   REMARKS
ST LOUIS INTL  MOCLDY    71  61  70 NE7       29.92R
SPIRIT OF STL  MOCLDY    70  63  78 N3        29.92R
ST CHARLES     PTCLDY    69  63  81 N7        29.92R

$$
MOZ072>076-082>087-097>100-106>115-030500-
...SOUTH CENTRAL AND SOUTHEAST MISSOURI...

CITY           SKY/WX    TMP DP  RH WIND       PRES   REMARKS
CAPE GIRARDEAU MOCLDY    73  69  87 CALM      29.88R
FARMINGTON     CLOUDY    70  66  88 NW3       29.95R
POPLAR BLUFF   CLOUDY    75  69  81 NE7       29.87R
WEST PLAINS    CLOUDY    74  68  81 CALM      29.93R

$$



USA.gov is the U.S. government's official web portal to all federal, state and local government web resources and services.